Weather in Salto

Uruguay     31°23′19″S   57°57′15″W
temp.,
°C
wind,
m/s
gust,
m/s
humid.,
%
clouds,
%
prec.,
mm/h
press.,
hPa
HPBL,
m
1 march, mon
mon100:00+24ene4115211 0.0 1014279
03:00+22ene5127438 0.0 1013484
06:00+19ene39900 0.0 1013307
09:00+24ene46720 0.0 1014647
12:00+30e34497 0.0 10131440
15:00+34ese34323 0.0 10102361
18:00+31se56430 0.0 10081447
21:00+26se396210 0.0 1010225
2 march, tue
tue200:00+24e4117370 0.0 1011437
03:00+21ese259256 0.0 1011173
06:00+20ese239798 0.0 101174
09:00+25e347450 0.0 1012396
12:00+33ene114410 0.0 10121564
15:00+35s113335 0.0 10102430
18:00+32ese454131 0.0 10091294
21:00+27ese365217 0.0 1011106
3 march, wed
wed300:00+25ese38620 0.0 1012189
03:00+22ese37844 0.0 1012211
06:00+21e26950 0.0 1013175
09:00+26ene35731 0.1 1014372
12:00+34e22380 0.1 10142086
15:00+34ese323622 0.1 10112237
18:00+32se344132 0.0 1010819
21:00+28se235252 0.1 101164
4 march, thu
thu400:00+25e4106254 0.0 1012288
03:00+22ene279176 1.8 1011212
06:00+21ese259771 0.7 1012137
09:00+24ene248885 1.8 1013366
12:00+30se2256100 1.1 1012820
15:00+30e2252100 6.4 1010831
18:00+29ene2255100 0.2 1007370
21:00+24s117999 1.1 100924
5 march, fri
fri500:00+23se2587100 0.6 1009105
03:00+22se2391100 0.9 1008100
06:00+21sse2595100 0.0 1008148
09:00+24se3586100 0.0 1010378
12:00+30se5756100 0.0 10091450
15:00+33ese474198 0.0 10072236
18:00+32ese363876 0.0 10061580
21:00+26ese4104279 0.0 1008226